Date String (YYYY-MM-DD hh:mm:ss) UTC,Instrument flags,Ambient pressure (hPa),Sample flow (lpm),Bypass flow (lpm),Sample temperature (°C),Ambient temperature (°C),ASC tube jacket temperature (°C),LED temperature (°C),Box temperature (°C),Sample RH (%),Span deviation,Mass concentration (μg/m³),Mass concentration (μg/m³),Mass concentration (μg/m³)
DateTimeUTC,F1_M11,P_M11,Q1_M11,Q2_M11,T1_M11,T2_M11,T3_M11,T4_M11,T5_M11,U1_M11,ZSPAN_M11,X0_M11,X2_M11,X1_M11
2022-11-26 04:00:00,,0826.7,5.00,0.00,25.5,23.9,00.0,34.5,27.3,11.2,0000.0,0002.32,0000.84,0000.69
2022-11-26 04:01:00,,0826.6,5.01,0.00,25.5,23.9,00.0,34.5,27.1,11.2,0000.0,0002.30,0000.84,0000.69
2022-11-26 04:02:00,,0826.6,4.99,0.00,25.5,23.9,00.0,34.5,27.1,11.2,0000.0,0002.27,0000.84,0000.69
2022-11-26 04:03:00,,0826.6,5.00,0.00,25.4,23.9,00.0,34.5,27.1,11.3,0000.0,0002.28,0000.84,0000.69
2022-11-26 04:04:00,,0826.6,4.99,0.00,25.4,23.9,00.0,34.5,27.1,11.3,0000.0,0002.27,0000.84,0000.68
2022-11-26 04:05:00,,0826.5,4.99,0.00,25.4,23.8,00.0,34.5,27.1,11.3,0000.0,0002.23,0000.84,0000.69
2022-11-26 04:06:00,,0826.5,5.00,0.00,25.4,23.8,00.0,34.5,27.1,11.3,0000.0,0001.41,0000.81,0000.67
2022-11-26 04:07:00,,0826.5,5.02,0.00,25.4,23.8,00.0,34.4,27.1,11.3,0000.0,0001.19,0000.80,0000.67
2022-11-26 04:08:00,,0826.5,5.00,0.00,25.4,23.8,00.0,34.4,27.1,11.2,0000.0,0001.18,0000.82,0000.66
2022-11-26 04:09:00,,0826.5,5.00,0.00,25.4,23.8,00.0,34.4,27.0,11.2,0000.0,0001.17,0000.83,0000.66
2022-11-26 04:10:00,,0826.5,5.00,0.00,25.4,23.8,00.0,34.4,27.0,11.2,0000.0,0001.17,0000.84,0000.67
2022-11-26 04:11:00,,0826.5,5.00,0.00,25.4,23.8,00.0,34.4,27.0,11.2,0000.0,0001.07,0000.81,0000.66
2022-11-26 04:12:00,,0826.5,5.00,0.00,25.4,23.8,00.0,34.4,27.1,11.2,0000.0,0001.03,0000.79,0000.66
2022-11-26 04:13:00,,0826.5,5.00,0.00,25.4,23.7,00.0,34.4,27.0,11.2,0000.0,0001.08,0000.80,0000.67
2022-11-26 04:14:00,,0826.5,5.00,0.00,25.4,23.7,00.0,34.4,27.0,11.2,0000.0,0001.22,0000.82,0000.67
2022-11-26 04:15:00,,0826.5,5.00,0.00,25.3,23.7,00.0,34.4,27.0,11.3,0000.0,0001.26,0000.83,0000.67
2022-11-26 04:16:00,,0826.5,5.00,0.00,25.3,23.7,00.0,34.4,27.0,11.2,0000.0,0001.29,0000.84,0000.67
2022-11-26 04:17:00,,0826.5,5.00,0.00,25.3,23.7,00.0,34.4,27.0,11.3,0000.0,0001.29,0000.85,0000.68
2022-11-26 04:18:00,,0826.5,5.00,0.00,25.3,23.7,00.0,34.4,26.9,11.3,0000.0,0001.32,0000.85,0000.69
2022-11-26 04:19:00,,0826.5,5.00,0.00,25.3,23.7,00.0,34.3,26.9,11.3,0000.0,0001.38,0000.88,0000.71
2022-11-26 04:20:00,,0826.5,5.00,0.00,25.3,23.6,00.0,34.3,26.9,11.3,0000.0,0001.39,0000.87,0000.71
2022-11-26 04:21:00,,0826.5,4.98,0.00,25.3,23.6,00.0,34.3,26.9,11.4,0000.0,0001.45,0000.88,0000.71
2022-11-26 04:22:00,,0826.5,5.02,0.00,25.3,23.6,00.0,34.3,27.0,11.4,0000.0,0001.48,0000.89,0000.72
2022-11-26 04:23:00,,0826.4,5.00,0.00,25.3,23.6,00.0,34.3,26.9,11.4,0000.0,0001.53,0000.91,0000.72
2022-11-26 04:24:00,,0826.5,5.01,0.00,25.2,23.6,00.0,34.3,26.8,11.4,0000.0,0001.59,0000.93,0000.72
2022-11-26 04:25:00,,0826.4,5.00,0.00,25.2,23.6,00.0,34.3,26.9,11.5,0000.0,0001.45,0000.92,0000.72
2022-11-26 04:26:00,,0826.4,5.00,0.00,25.2,23.6,00.0,34.3,26.8,11.5,0000.0,0001.43,0000.92,0000.73
2022-11-26 04:27:00,,0826.4,5.00,0.00,25.2,23.6,00.0,34.3,26.8,11.5,0000.0,0001.41,0000.91,0000.73
2022-11-26 04:28:00,,0826.4,5.00,0.00,25.2,23.6,00.0,34.2,26.8,11.5,0000.0,0001.43,0000.92,0000.74
2022-11-26 04:29:00,,0826.4,5.00,0.00,25.2,23.6,00.0,34.2,26.9,11.5,0000.0,0001.44,0000.93,0000.74
2022-11-26 04:30:00,,0826.4,4.99,0.00,25.1,23.6,00.0,34.2,26.8,11.4,0000.0,0001.40,0000.91,0000.73
2022-11-26 04:31:00,,0826.3,5.00,0.00,25.1,23.6,00.0,34.2,26.8,11.5,0000.0,0001.38,0000.91,0000.73
2022-11-26 04:32:00,,0826.3,5.00,0.00,25.1,23.6,00.0,34.2,26.8,11.5,0000.0,0001.25,0000.89,0000.73
2022-11-26 04:33:00,,0826.3,5.02,0.00,25.1,23.5,00.0,34.2,26.8,11.5,0000.0,0001.25,0000.89,0000.73
2022-11-26 04:34:00,,0826.4,5.00,0.00,25.1,23.5,00.0,34.2,26.7,11.6,0000.0,0001.24,0000.90,0000.73
2022-11-26 04:35:00,,0826.2,5.00,0.00,25.1,23.5,00.0,34.2,26.8,11.5,0000.0,0001.22,0000.90,0000.74
2022-11-26 04:36:00,,0826.2,4.98,0.00,25.1,23.5,00.0,34.2,26.8,11.5,0000.0,0001.18,0000.89,0000.74
2022-11-26 04:37:00,,0826.2,5.00,0.00,25.1,23.5,00.0,34.2,26.7,11.5,0000.0,0001.22,0000.89,0000.73
2022-11-26 04:38:00,,0826.2,5.00,0.00,25.1,23.5,00.0,34.1,26.8,11.4,0000.0,0001.28,0000.90,0000.73
2022-11-26 04:39:00,,0826.2,5.02,0.00,25.1,23.5,00.0,34.1,26.8,11.5,0000.0,0001.25,0000.89,0000.71
2022-11-26 04:40:00,,0826.2,5.00,0.00,25.1,23.5,00.0,34.1,26.7,11.5,0000.0,0001.20,0000.86,0000.70
2022-11-26 04:41:00,,0826.2,5.00,0.00,25.1,23.5,00.0,34.1,26.7,11.5,0000.0,0001.21,0000.85,0000.69
2022-11-26 04:42:00,,0826.1,4.98,0.00,25.1,23.4,00.0,34.1,26.6,11.5,0000.0,0001.14,0000.82,0000.67
2022-11-26 04:43:00,,0826.2,5.00,0.00,25.0,23.4,00.0,34.1,26.6,11.5,0000.0,0001.13,0000.81,0000.66
2022-11-26 04:44:00,,0826.2,5.01,0.00,25.0,23.4,00.0,34.1,26.6,11.6,0000.0,0001.15,0000.80,0000.66
2022-11-26 04:45:00,,0826.2,5.00,0.00,25.0,23.4,00.0,34.1,26.6,11.5,0000.0,0001.23,0000.81,0000.65
2022-11-26 04:46:00,,0826.2,5.01,0.00,25.0,23.3,00.0,34.0,26.6,11.5,0000.0,0001.35,0000.80,0000.65
2022-11-26 04:47:00,,0826.2,4.98,0.00,25.0,23.3,00.0,34.0,26.6,11.6,0000.0,0001.33,0000.79,0000.65
2022-11-26 04:48:00,,0826.2,5.01,0.00,25.0,23.4,00.0,34.0,26.7,12.0,0000.0,0001.25,0000.76,0000.64
2022-11-26 04:49:00,,0826.2,5.01,0.00,25.0,23.4,00.0,34.0,26.6,11.8,0000.0,0001.17,0000.74,0000.64
2022-11-26 04:50:00,,0826.2,4.98,0.00,24.9,23.3,00.0,34.0,26.6,11.7,0000.0,0001.16,0000.74,0000.64
2022-11-26 04:51:00,,0826.2,5.00,0.00,24.9,23.3,00.0,34.0,26.6,11.6,0000.0,0001.18,0000.74,0000.64
2022-11-26 04:52:00,,0826.2,5.00,0.00,24.9,23.3,00.0,34.0,26.6,11.6,0000.0,0001.17,0000.74,0000.65
2022-11-26 04:53:00,,0826.2,5.00,0.00,24.9,23.3,00.0,34.0,26.6,11.7,0000.0,0001.20,0000.75,0000.65
2022-11-26 04:54:00,,0826.2,5.00,0.00,24.9,23.4,00.0,34.0,26.7,11.7,0000.0,0001.22,0000.76,0000.65
2022-11-26 04:55:00,,0826.2,4.99,0.00,24.9,23.3,00.0,34.0,26.6,11.6,0000.0,0001.25,0000.78,0000.66
2022-11-26 04:56:00,,0826.1,5.01,0.00,24.9,23.3,00.0,33.9,26.5,11.6,0000.0,0001.21,0000.78,0000.66
2022-11-26 04:57:00,,0826.1,5.00,0.00,24.9,23.3,00.0,33.9,26.6,11.6,0000.0,0001.06,0000.78,0000.66
2022-11-26 04:58:00,,0826.1,5.00,0.00,24.9,23.3,00.0,33.9,26.5,11.5,0000.0,0001.08,0000.78,0000.67
2022-11-26 04:59:00,,0826.1,5.01,0.00,24.9,23.3,00.0,33.9,26.5,11.6,0000.0,0001.12,0000.80,0000.68
